EHI
0 1 1 1 0 0 0 0 0 0 0 0 0 0 0 0 0 0 0 0 0 0 0 0 0 0 0 0 0 0 0 0 0 0 0 0 0 0 0 0 0 0 0
0 0 0 0 0 0 0 0 0 0 0 0 0 0 0 0 0 0 0 0 0 0 0 0 0 0 0 0 0 0 0 0 0 0 0 0 0 0 0 0 0 0 0
0 0 0 0 0 0 0 0 0 0 0 0 0 0 0 0 0 0 0 0 0 0 0 0 0 0 0 0 0 0 0 0 0 0 0 0 0 0 0 0 0 0 0
0 0 0 0 0 0 0 0 0 0 0 0 0 0 0 0 0 0 0 0 0 0 0 0 0 0 0 0 0 0 0 0 0 0 0 0 0 0 0 0 0 0 0
0 0 0 0 0 0 0 0 0 0 0 0 0 0 0 0 0 0 0 0 0 0 0 0 0 0 0 0 0 0 0 0 0 0 0 0 0 0 0 0 0 0 0
0 0 0 0 0 0 0 0 0 0 0 0 0 0 0 0 0 0 0 0 0 0 0 0 0 0 0 0 0 0 0 0 0 0 0 0 0 0 0 0 0 0 0
0 0 0 0 0 0 0 0 0 0 0 0 0 0 0 0 0 0 0 0 0 0 0 0 0 0 0 0 0 0 0 0 0 0 0 0 0 0 0 0 0 0 0
0 0 0 0 0 0 0 0 0 0 0 0 0 0 0 0 0 0 0 0 0 0 0 0 0 0 0 0 0 0 0 0 0 0 0 0 0 0 0 0 0 0 0
0 0 0 0 0 0 0 0 0 0 0 0 0 0 0 0 0 0 0 0 0 0 0 0 0 0 0 0 0 0 0 0 0 0 0 0 0 0 0 0 0 0 0
0 0 0 0 0 0 0 0 0 0 0 0 0 0 0 0 0 0 0 0 0 0 0 0 0 0 0 0 0 0 0 0 0 0 0 0 0 0 0 0 0 0 0
0 0 0 0 0 0 0 0 0 0 0 0 0 0 0 0 0 0 0 0 0 0 0 0 0 0 0 0 0 0 0 0 0 0 0 0 0 0 0 0 0 0 0
0 0 0 0 0 0 0 0 0 0 0 0 0 0 0 0 0 0 0 0 0 0 0 0 0 0 0 0 0 0 0 0 0 0 0 0 0 0 0 0 0 0 0
0 0 0 0 0 0 0 0 0 0 0 0 0 0 0 0 0 0 0 0 0 0 0 0 0 0 0 0 0 0 0 0 0 0 0 0 0 0 0 0 0 0 0
0 0 0 0 0 0 0 0 0 0 0 0 0 0 0 0 0 0 0 0 0 0 0 0 0 0 0 0 0 0 0 0 0 0 0 0 0 0 0 0 0 0 0
0 0 0 0 0 0 0 0 0 0 0 0 0 0 0 0 0 0 0 0 0 0 0 0 0 0 0 0 0 0 0 0 0 0 0 0 0 0 0 0 0 0 0
0 0 0 0 0 0 0 0 0 0 0 0 0 0 0 0 0 0 0 0 0 0 0 0 0 0 0 0 0 0 0 0 0 0 0 0 0 0 0 0 0 0 0
0 0 0 0 0 0 0 0 0 0 0 0 0 0 0 0 0 0 0 0 0 0 0 0 0 0 0 0 0 0 0 0 0 0 0 0 0 0 0 0 0 0 0
0 0 0 0 0 0 0 0 0 0 0 0 0 0 0 0 0 0 0 0 0 0 0 0 0 0 0 0 0 0 0 0 0 0 0 0 0 0 0 0 0 0 0
0 0 0 0 0 0 0 0 0 0 0 0 0 0 0 0 0 0 0 0 0 0 0 0 0 0 0 0 0 0 0 0 0 0 0 0 0 0 0 0 0 0 0
0 0 0 0 0 0 0 0 0 0 0 0 0 0 0 0 0 0 0 0 0 0 0 0 0 0 0 0 0 0 0 0 0 0 0 0 0 0 0 0 0 0 0
0 0 0 0 0 0 0 0 0 0 0 0 0 0 0 0 0 0 0 0 0 0 0 0 0 0 0 0 0 0 0 0 0 0 0 0 0 0 0 0 0 0 0
0 0 0 0 0 0 0 0 0 0 0 0 0 0 0 0 0 0 0 0 0 0 0 0 0 0 0 0 0 0 0 0 0 0 0 0 0 0 0 0 0 0 0
0 0 0 0 0 0 0 0 0 0 0 0 0 0 0 0 0 0 0 0 0 0 0 0 0 0 0 0 0 0 0 0 0 0 0 0 0 0 0 0 0 0 0
0 0 0 0 0 0 0 0 0 0 0 0 0 0 0 0 0 0 0 0 0 0 0 0 0 0 0 0 0 0 0 0 0 0 0 0 0 0 0 0 0 0 0
0 0 0 0 0 0 0 0 0 0 0 0 0 0 0 0 0 0 0 0 0 0 0 0 0 0 0 0 0 0 0 0 0 0 0 0 0 0 0 0 0 0 0
0 0 0 0 0 0 0 0 0 0 0 0 0 0 0 0 0 0 0 0 0 0 0 0 0 0 0 0 0 0 0 0 0 0 0 0 0 0 0 0 0 0 0
Wind_Speed
6 9 18 18 17 17 16 16 15 14 14 13 13 13 13 14 14 14 14 14 14 14 14 15 15 15 14 14 14 14 14 15 16 16 16 16 15 15 15 14 13 9 15
11 11 19 18 18 17 17 16 15 15 14 13 13 13 13 13 13 13 13 13 13 14 14 14 15 14 14 13 13 13 14 14 15 15 15 13 13 14 14 14 13 9 14
14 12 16 19 18 18 17 17 16 15 14 13 13 13 13 13 13 13 13 13 13 13 14 14 14 13 13 13 12 13 13 14 14 14 13 7 7 13 13 13 13 13 12
15 11 13 19 19 18 18 17 16 15 14 14 13 13 13 12 12 12 12 12 12 13 13 13 13 12 12 12 11 12 12 12 13 12 6 6 6 10 12 12 12 11 11
13 11 14 20 19 19 18 17 17 16 15 14 13 13 12 12 12 12 12 12 12 12 12 11 11 11 11 10 10 10 11 11 11 9 5 5 5 8 10 10 10 10 10
12 10 14 20 20 19 18 18 17 16 15 14 14 13 12 12 11 11 11 11 10 10 10 10 10 10 9 9 9 9 10 10 8 5 4 4 4 8 9 9 9 8 8
13 10 13 20 20 19 19 18 17 16 16 15 14 13 12 12 11 10 10 9 9 9 9 8 9 8 8 8 8 8 9 9 5 3 3 3 4 8 8 8 8 8 8
15 12 12 20 20 20 19 18 17 17 16 15 14 13 12 12 11 10 9 8 8 7 7 7 7 7 7 7 7 7 7 7 4 2 1 2 5 7 8 8 8 8 7
13 12 9 11 14 18 19 18 18 17 16 15 14 13 12 12 11 10 9 8 7 6 6 5 5 5 5 5 5 6 6 6 3 0 1 1 5 7 8 8 8 9 9
10 10 9 8 9 9 11 16 17 16 16 15 14 12 12 11 10 9 8 7 6 5 4 3 2 2 3 4 4 5 6 5 2 0 1 2 5 7 8 8 8 8 9
11 10 9 9 8 8 8 12 13 14 14 13 11 12 10 5 4 5 6 7 6 5 3 2 0 1 2 4 5 5 4 1 1 0 2 3 4 7 8 8 8 8 8
15 13 11 11 10 9 8 7 6 6 7 6 5 6 4 4 3 4 6 7 6 4 2 2 2 2 2 2 4 4 1 1 1 1 2 3 4 7 8 8 8 8 9
17 15 13 12 11 10 7 6 4 4 4 5 6 6 5 4 3 3 2 2 2 2 1 2 2 2 1 1 1 1 1 1 0 1 2 3 4 6 7 8 8 8 9
15 16 14 13 12 11 8 7 6 5 5 5 6 7 5 3 3 3 2 2 2 1 1 1 1 2 1 1 1 1 2 1 0 1 2 3 3 5 7 7 7 8 9
16 16 16 15 14 12 9 7 8 7 7 6 6 6 6 5 4 4 3 2 2 2 2 1 1 0 1 1 2 2 2 2 2 1 1 2 2 4 6 7 8 8 9
16 17 16 16 15 13 11 9 8 8 7 7 6 7 8 6 5 4 3 3 3 2 2 2 1 1 1 1 2 2 2 2 2 1 0 1 3 4 5 7 7 8 9
17 17 17 18 16 15 13 11 9 8 8 7 7 7 8 7 6 5 4 3 3 3 3 2 1 1 1 2 2 3 2 2 2 1 1 1 1 3 4 5 6 8 9
14 16 17 16 16 16 13 11 8 8 8 7 7 6 8 8 7 5 4 3 3 3 2 2 1 1 2 2 2 2 2 2 2 1 1 1 1 1 3 4 6 7 8
16 17 17 16 17 16 14 10 9 8 8 7 7 6 7 8 7 6 4 4 4 3 2 2 2 2 1 1 2 2 2 2 2 1 2 2 1 1 1 3 5 7 8
16 17 18 16 16 14 11 8 7 7 7 7 7 7 8 7 7 6 4 5 5 4 3 2 2 2 1 1 2 3 3 3 2 2 2 2 2 2 2 2 3 4 8
13 15 17 16 15 13 11 10 10 9 8 7 6 8 9 8 8 7 5 5 5 4 4 4 3 2 1 1 2 3 4 3 3 2 2 2 2 3 3 2 2 2 3
16 17 17 17 17 16 13 11 8 7 5 6 6 7 9 9 8 7 7 6 5 4 4 4 3 2 1 2 2 2 3 4 3 3 2 2 2 2 3 3 3 3 2
15 18 17 18 17 16 12 8 7 5 4 4 6 6 7 9 9 8 8 7 6 5 5 4 4 5 2 1 1 3 2 2 3 3 2 2 2 2 2 3 3 4 3
15 15 16 16 15 15 14 13 15 10 8 8 7 6 7 8 9 8 8 8 7 5 5 5 4 4 4 2 1 1 2 3 2 2 3 2 3 2 3 3 4 4 4
12 13 13 14 14 14 15 16 15 9 7 5 6 7 7 6 8 8 8 8 7 5 6 6 5 4 3 4 3 2 1 1 2 2 3 4 4 3 3 4 3 3 3
8 9 11 13 13 14 15 15 15 13 10 10 9 9 7 5 5 7 8 7 7 6 6 6 5 5 4 4 3 3 3 3 2 3 3 4 4 4 3 3 3 2 2
Wind_Direction
166 169 157 152 145 141 137 131 125 119 116 111 106 101 97 95 91 89 87 85 83 80 78 76 73 71 72 72 71 70 69 67 63 59 57 58 58 58 56 56 51 40 48
155 163 157 153 148 143 138 133 127 123 120 116 111 107 102 98 94 91 89 87 84 82 79 77 74 73 72 73 74 71 67 70 69 64 54 45 53 59 57 53 51 48 48
149 157 156 153 150 146 141 136 131 128 125 121 116 112 107 103 100 96 93 89 87 84 81 78 76 75 74 74 73 69 65 69 71 66 50 24 25 57 56 55 52 50 48
150 152 153 154 151 147 143 139 136 133 131 126 122 117 112 108 104 101 97 94 91 87 84 81 79 76 74 74 73 67 65 70 71 64 42 23 6 51 53 51 50 48 46
148 150 157 155 152 149 146 143 140 138 135 131 127 122 117 113 109 105 102 98 94 90 86 83 79 76 73 72 70 66 67 70 69 61 41 21 2 43 50 47 46 46 43
148 151 160 157 156 153 151 148 146 144 140 137 132 128 124 120 114 109 106 103 98 93 88 84 79 74 70 69 67 64 64 65 64 52 42 19 353 32 42 40 37 36 37
151 155 162 160 159 156 154 153 152 148 145 142 137 134 131 126 122 117 113 109 103 97 91 86 80 74 69 66 63 59 59 64 69 59 44 12 354 24 28 26 23 20 21
155 157 162 163 162 160 159 157 155 153 151 147 144 141 137 134 132 128 124 119 113 107 101 92 85 77 69 62 56 51 49 49 64 66 40 339 8 16 15 13 7 3 4
154 156 160 163 164 163 161 160 160 158 156 153 151 148 145 143 141 137 135 131 126 117 109 97 84 71 57 45 38 34 29 33 62 243 242 298 359 4 4 1 356 355 356
156 159 158 158 159 160 161 163 163 163 161 160 156 152 152 151 149 148 146 147 143 136 125 111 91 56 27 10 5 4 10 26 28 359 263 292 349 356 357 354 351 350 348
165 168 163 160 159 156 159 167 165 166 167 164 159 158 154 146 146 151 164 166 163 160 157 156 115 2 350 337 331 335 1 9 357 235 245 288 346 352 355 353 350 346 346
177 178 173 168 164 161 167 164 162 162 163 158 155 157 151 155 167 173 190 185 182 184 204 236 274 311 334 330 322 331 346 333 346 242 258 287 340 350 355 357 357 354 354
178 178 178 175 170 169 167 162 162 157 156 158 162 162 159 161 175 180 181 200 202 207 248 291 312 321 314 289 301 322 317 329 306 265 282 298 336 351 356 0 1 2 3
177 183 179 177 174 174 169 169 167 165 167 170 174 171 163 166 177 178 187 196 197 199 220 257 289 299 309 296 291 343 352 352 326 276 287 317 349 1 1 4 8 9 6
182 184 181 179 178 176 172 174 174 175 176 177 178 179 172 172 180 183 192 194 197 191 195 202 228 295 359 3 14 22 4 357 357 349 316 339 22 17 7 11 11 9 5
187 186 181 182 181 177 179 179 179 180 179 178 182 183 179 176 177 179 184 188 192 188 186 175 168 116 42 24 16 14 8 3 4 3 350 14 41 37 25 21 15 10 7
190 185 183 183 181 181 181 181 179 181 179 182 184 184 181 179 179 175 175 181 186 176 159 138 114 82 54 33 15 3 3 357 359 12 62 66 44 47 41 31 18 10 4
189 185 185 183 182 183 182 180 178 178 179 182 181 181 182 181 177 169 168 177 173 150 138 133 112 85 51 31 350 334 341 343 349 3 75 101 83 41 24 27 17 7 2
191 186 184 183 182 183 180 177 174 174 178 179 178 180 182 179 173 165 167 169 155 136 133 131 99 109 80 355 322 334 344 343 339 23 70 85 85 68 26 13 15 8 0
192 187 185 183 181 178 173 167 167 172 177 177 180 182 179 175 169 161 160 159 149 136 135 128 115 89 87 1 347 354 349 347 18 48 60 59 59 61 51 35 18 3 0
188 185 184 182 179 174 176 176 178 183 181 180 183 181 178 171 167 161 157 156 153 152 158 149 127 105 60 33 39 2 350 5 37 33 30 46 46 44 45 32 13 358 342
188 187 185 184 181 181 182 181 178 169 172 176 177 179 177 171 168 166 162 162 159 149 149 147 135 125 88 65 105 73 6 349 350 4 8 33 28 21 18 4 352 338 322
190 188 186 186 183 182 172 159 143 131 128 163 180 180 180 172 168 166 167 161 161 156 161 162 151 144 145 80 104 136 138 230 303 323 340 358 354 2 348 332 332 324 317
194 188 186 183 181 179 170 170 170 176 180 184 176 172 171 172 168 167 165 162 163 159 159 162 155 147 142 153 119 104 153 161 167 306 315 317 325 323 315 315 317 312 314
189 183 183 179 179 177 177 177 178 179 172 154 155 162 167 171 170 168 164 162 162 160 161 157 152 151 150 158 166 159 133 106 154 179 278 307 315 291 286 289 292 301 312
179 177 175 177 180 178 179 179 181 176 164 161 166 171 172 168 170 172 165 164 164 162 164 163 161 160 160 158 163 165 165 171 187 182 230 274 293 290 288 280 278 285 304